アトラス彗星

C/2020 X2 ( ATLAS )

English version
Home page
Updated on September 18, 2021

---------------------------------------------------------------------

・ プロフィール

発見日 2020年12月10日
発見光度 18.2等
発見者 Asteroid Terrestrial-Impact Last Alert System (ATLAS) search program

・ 写真集

・ 軌道要素

Epoch 2020 Nov. 7.0 TT = JDT 2459160.5
T 2020 Nov. 15.88111 TT                                 Rudenko
q   3.8285141            (2000.0)            P               Q
n   0.01487229     Peri.  347.35571     -0.05964656     -0.95178687
a  16.3763675      Node   105.45871     +0.94088374     -0.15429659
e   0.7662171      Incl.   18.19186     +0.33343676     +0.26513076
P  66.3
From 225 observations 2020 Sept. 25-2021 Apr. 11, mean residual 0".5.

・ 光度変化

        m1 = 10.0 + 5 logΔ + 10.0 log r

---------------------------------------------------------------------

軌道要素はM.P.E.C. 2021-L04に掲載されたものです。
光度グラフはComet for Windowsで作成したものです。

---------------------------------------------------------------------

Copyright(C) Seiichi Yoshida (comet@aerith.net). All rights reserved.